CW9561 Weather Reports


Display with metric or nautical units.
time (UTC)temp
F
wind
direction
speed
MPH
gust
MPH
rain 1hr
in
rain 24hr
in
rain mn
in
humidity
%
barometer
mb
20260831102021 43 326 0.0 0.0 0.00 0.00 0.00 96 1027.7
20260831101027 42 326 0.0 0.0 0.00 0.00 0.00 96 1027.6
20260831095027 42 326 0.0 0.0 0.00 0.00 0.00 96 1027.6
20260831094023 42 326 0.0 0.0 0.00 0.00 0.00 95 1027.4
20260831093040 42 326 0.0 0.0 0.00 0.00 0.00 95 1027.4
20260831091023 42 326 0.0 0.0 0.00 0.00 0.00 95 1028.2
20260831090019 42 326 0.0 0.0 0.00 0.00 0.00 95 1027.9
20260831085019 42 326 0.0 0.0 0.00 0.00 0.00 95 1027.9
20260831084038 42 326 0.0 0.0 0.00 0.00 0.00 95 1027.9
20260831083039 42 326 0.0 0.0 0.00 0.00 0.00 95 1028.0
20260831082035 42 326 0.0 0.0 0.00 0.00 0.00 95 1028.0
20260831081032 42 326 0.0 0.0 0.00 0.00 0.00 95 1028.0
20260831080034 42 326 0.0 0.0 0.00 0.00 0.00 95 1027.9
20260831075029 43 326 0.0 0.0 0.00 0.00 0.00 95 1028.0
20260831074031 43 326 0.0 0.0 0.00 0.00 0.00 95 1028.1
20260831073027 43 326 0.0 0.0 0.00 0.00 0.00 95 1028.2
20260831072025 43 326 0.0 0.0 0.00 0.00 0.00 94 1028.2
20260831071021 43 326 0.0 0.0 0.00 0.00 0.00 94 1028.3
20260831070027 43 326 0.0 0.0 0.00 0.00 0.00 94 1028.4
20260831065027 44 326 0.0 0.0 0.00 0.00 0.00 94 1028.5
20260831064028 44 326 0.0 0.0 0.00 0.00 0.00 94 1028.5
20260831063027 44 326 0.0 0.0 0.00 0.00 0.00 93 1028.6
20260831062025 45 326 0.0 0.0 0.00 0.00 0.00 93 1028.4
20260831061033 45 326 0.0 0.0 0.00 0.00 0.00 92 1028.6
20260831060028 46 326 0.0 0.0 0.00 0.00 0.00 92 1028.6
20260831054024 45 326 0.0 0.0 0.00 0.00 0.69 93 1028.5
20260831053029 45 326 0.0 0.0 0.00 0.00 0.69 93 1028.5
20260831052026 45 326 0.0 0.0 0.00 0.00 0.69 93 1028.5
20260831051023 46 326 0.0 0.0 0.00 0.00 0.69 93 1028.5
20260831050022 46 326 0.0 0.0 0.00 0.00 0.69 92 1028.4
20260831045018 46 326 0.0 0.0 0.00 0.00 0.69 92 1028.7
20260831043024 47 326 0.0 0.0 0.00 0.00 0.69 91 1029.3
20260831042024 47 327 1.0 0.0 0.00 0.00 0.69 91 1029.1
20260831041020 47 288 0.0 0.0 0.00 0.00 0.69 91 1028.4
20260831040023 47 228 0.0 0.0 0.00 0.00 0.69 91 1028.4
20260831034021 48 206 0.0 0.0 0.00 0.00 0.69 92 1029.2
20260831033017 48 286 0.0 0.0 0.00 0.00 0.66 91 1030.0
20260831031032 49 242 1.0 0.0 0.00 0.00 0.56 89 1030.1
20260831030037 51 273 2.0 0.0 0.00 0.00 0.53 88 1029.7
20260831025033 53 257 0.0 0.0 0.00 0.00 0.48 89 1029.5
20260831024034 53 259 0.0 0.0 0.00 0.00 0.46 87 1028.7
20260831023021 53 228 0.0 0.0 0.00 0.00 0.46 85 1028.2
20260831022022 53 283 0.0 0.0 0.00 0.00 0.46 85 1027.9
20260831015022 53 283 0.0 0.0 0.00 0.00 0.46 84 1027.3
20260831014040 54 283 0.0 0.0 0.00 0.00 0.46 84 1027.0
20260831013036 54 283 0.0 0.0 0.00 0.00 0.46 82 1026.9
20260831012037 54 283 0.0 0.0 0.00 0.00 0.46 82 1026.8
20260831011034 55 283 0.0 0.0 0.00 0.00 0.46 82 1027.3
20260831005032 55 306 0.0 0.0 0.00 0.00 0.46 80 1027.2
20260831004037 56 169 0.0 0.0 0.00 0.00 0.46 79 1027.2
20260831003025 56 169 0.0 0.0 0.00 0.00 0.46 79 1027.2
20260831002026 57 265 0.0 0.0 0.00 0.00 0.46 78 1027.2
20260831001034 57 259 0.0 0.0 0.00 0.00 0.46 77 1027.1
20260831000032 58 250 0.0 0.0 0.00 0.00 0.46 77 1027.2
20260830235032 59 310 0.0 0.0 0.00 0.00 0.46 75 1027.2
20260830234033 59 244 0.0 0.0 0.00 0.00 0.46 74 1027.2
20260830232032 58 9 0.0 0.0 0.00 0.00 0.46 77 1027.2
20260830231028 58 9 0.0 0.0 0.00 0.00 0.46 76 1027.2
20260830230035 57 5 0.0 0.0 0.00 0.00 0.46 78 1027.0
20260830225036 56 344 2.0 0.0 0.00 0.00 0.46 80 1027.0
20260830224032 57 87 2.0 0.0 0.00 0.00 0.46 79 1026.9
20260830223026 58 360 4.0 0.0 0.00 0.00 0.46 81 1027.6
20260830222021 59 249 1.0 0.0 0.00 0.00 0.46 83 1027.5
20260830220039 55 121 1.0 0.0 0.00 0.00 0.46 88 1028.0
20260830215016 55 53 1.0 0.0 0.00 0.00 0.46 86 1028.0
20260830214037 56 38 2.0 0.0 0.00 0.00 0.46 85 1028.2
20260830213035 56 248 0.0 0.0 0.00 0.00 0.45 88 1028.5
20260830212019 55 215 0.0 0.0 0.00 0.00 0.45 87 1028.5
20260830211021 54 169 0.0 0.0 0.00 0.00 0.45 89 1028.5
20260830210037 53 265 0.0 0.0 0.00 0.00 0.45 91 1028.2
20260830205033 52 265 0.0 0.0 0.00 0.00 0.45 91 1028.5
20260830204028 52 269 0.0 0.0 0.00 0.00 0.45 92 1028.5
20260830203027 52 263 0.0 0.0 0.00 0.00 0.45 93 1029.1
20260830202025 51 263 0.0 0.0 0.00 0.00 0.45 93 1029.1
20260830201040 50 263 0.0 0.0 0.00 0.00 0.44 93 1029.2
20260830195033 49 254 0.0 0.0 0.00 0.00 0.40 91 1029.8
20260830194034 50 242 1.0 0.0 0.00 0.00 0.37 90 1029.2
20260830193029 50 302 1.0 0.0 0.00 0.00 0.35 90 1028.7
20260830192027 50 196 0.0 0.0 0.00 0.00 0.34 92 1028.5
20260830191022 50 253 1.0 0.0 0.00 0.00 0.34 91 1028.0
20260830190026 50 202 0.0 0.0 0.00 0.00 0.33 90 1027.7
20260830185024 51 290 0.0 0.0 0.00 0.00 0.31 90 1028.5
20260830184039 52 238 1.0 0.0 0.00 0.00 0.27 88 1028.6
20260830183035 53 227 1.0 0.0 0.00 0.00 0.25 87 1028.4
20260830182030 54 84 0.0 0.0 0.00 0.00 0.24 89 1028.1
20260830181031 53 85 1.0 0.0 0.00 0.00 0.24 85 1027.4
20260830180027 53 84 1.0 0.0 0.00 0.00 0.24 88 1027.3
20260830175021 53 96 1.0 0.0 0.00 0.00 0.24 92 1027.4
20260830174037 51 133 0.0 0.0 0.00 0.00 0.24 94 1027.4
20260830173036 50 244 0.0 0.0 0.00 0.00 0.24 93 1027.2
20260830171034 52 277 1.0 0.0 0.00 0.00 0.22 88 1028.3
20260830170038 54 78 0.0 0.0 0.00 0.00 0.07 92 1027.7
20260830165034 54 78 1.0 0.0 0.00 0.00 0.07 93 1026.7
20260830164032 52 78 0.0 0.0 0.00 0.00 0.07 95 1026.8
20260830162036 51 107 0.0 0.0 0.00 0.00 0.07 96 1027.0
20260830161032 50 107 0.0 0.0 0.00 0.00 0.07 96 1027.1
20260830160026 50 106 0.0 0.0 0.00 0.00 0.07 96 1027.7
20260830155038 49 107 0.0 0.0 0.00 0.00 0.07 96 1027.4
20260830153024 49 106 0.0 0.0 0.00 0.00 0.07 96 1027.9
20260830152023 49 106 0.0 0.0 0.00 0.00 0.07 96 1027.9
20260830151035 49 106 0.0 0.0 0.00 0.00 0.07 96 1028.1
20260830145026 48 106 0.0 0.0 0.00 0.00 0.07 97 1027.6
20260830144021 48 106 0.0 0.0 0.00 0.00 0.06 97 1028.3
20260830143022 48 106 1.0 0.0 0.00 0.00 0.06 97 1028.2
20260830142034 48 106 0.0 0.0 0.00 0.00 0.06 96 1028.2
20260830135021 47 106 0.0 0.0 0.00 0.00 0.06 96 1028.2
20260830134020 47 106 0.0 0.0 0.00 0.00 0.06 96 1028.0
20260830133037 47 106 0.0 0.0 0.00 0.00 0.06 96 1027.4
20260830132028 47 106 0.0 0.0 0.00 0.00 0.06 96 1027.4
20260830131021 46 106 0.0 0.0 0.00 0.00 0.06 96 1027.1
20260830130033 46 106 0.0 0.0 0.00 0.00 0.06 96 1026.9
20260830125016 46 106 0.0 0.0 0.00 0.00 0.06 96 1026.5
20260830124034 47 106 0.0 0.0 0.00 0.00 0.06 96 1026.3
20260830123027 47 106 0.0 0.0 0.00 0.00 0.06 96 1026.2
20260830122019 46 106 0.0 0.0 0.00 0.00 0.06 96 1026.3
20260830121034 45 106 0.0 0.0 0.00 0.00 0.06 96 1026.2
20260830120031 45 106 0.0 0.0 0.00 0.00 0.06 96 1025.8
20260830115024 45 106 0.0 0.0 0.00 0.00 0.06 96 1025.6
20260830113031 46 106 0.0 0.0 0.00 0.00 0.06 96 1026.7
20260830112025 47 106 0.0 0.0 0.00 0.00 0.06 96 1026.5
20260830111022 47 106 0.0 0.0 0.00 0.00 0.06 96 1027.0
20260830110035 47 106 0.0 0.0 0.00 0.00 0.06 96 1027.0
20260830105031 47 106 0.0 0.0 0.00 0.00 0.06 96 1026.9
20260830104024 47 106 0.0 0.0 0.00 0.00 0.06 96 1027.0